DIAMANT R/B, 2671

Orbit data source: Space-Track

DIAMANT R/B, 2671 is space debris in LEO originally from a launch on Wed, 08 Feb 1967 UTC launched from the Hamma Guira Space Track Range (HGSTR). Debris objects in space refer to the collection of defunct objects orbiting the Earth. Examples of debris include non-operational satellites, rocket bodies, and fragments generated from explosions, collisions, or faulty payload assembly.

Loading next visibility...
Identifier
2671, 1967-011B
Orbit
LEO
Country
Flag of FRFR
Related business
Manufacturer
Sud
Mission
Spacecraft
Bus & Motor
RUBIS, Unknown motor
Mass
65 kg wet, 65 kg dry
Launch date (UTC)
1967-02-08 (59 years ago)
Launch vehicle
Unknown
Launch site
Hamma Guira Space Track Range (HGSTR)
Object type
Payload
Rocket body
Debris
Shape & HBR
Unknown
Radar Cross Section
Large (>1 m²)

Expand to show TLE details & history
Last TLE update: 14 hours ago

TLE from 14 hours ago
0 DIAMANT R/B
1 02671U 67011B   26104.04806366  .00001303  00000-0  26600-3 0  9991
2 02671  39.9459 114.8115 0331667 296.2994  60.4060 14.34598840 46311
Epoch: 2026-04-14T01:09Z
TLE epoch observation values (Epoch: 2026-04-14T01:09:12.700Z)
Latitude
-0.00005°
Longitude
-104.72139°
Altitude
664.79 km
Speed
7.585 km/s
True Right ascension
07h 39m 14s
True Declination
0° 00' 00"
Sunlit
Object was in daylight at epoch
Visualization orbit readout
Latitude
Unknown
Longitude
Unknown
Altitude
Unknown
Speed
Unknown
Apparent Right ascension
Unknown
Apparent Declination
Unknown
Sunlit
N/A
Visualization observer readout
Local Sidereal Time
21:43:27
Azimuth
Unknown
Elevation
Unknown
Doppler factor
Unknown
Orbital elements
Apogee altitude
1,016.128 km
Perigee altitude
541.387 km
Semi-major axis
7,156.895 km
Eccentricity
0.03317
Inclination
39.9459°
RAAN
114.8115°
Arg. of periapsis
296.2994°
True anomaly
63.77789°
Mean anomaly
60.406°
Eccentric anomaly
62.0852°
Mean motion
3.58473 °/min
Orbital period
100.43 mins
BSTAR
0.000266
Loading maneuver chart data...
Computing Atmospheric mass density...

Documentation

Showing up to 5 results
|